TimeCET,TemperatureF,Dew PointF,Humidity,Sea Level PressureIn,VisibilityMPH,Wind Direction,Wind SpeedMPH,Gust SpeedMPH,PrecipitationIn,Events,Conditions,WindDirDegrees,DateUTC
12:20 AM,44.6,37.4,76,30.04,6.2,WSW,20.7,-,N/A,,Scattered Clouds,250,2013-01-30 23:20:00
12:50 AM,44.6,37.4,76,30.06,6.2,WSW,21.9,-,N/A,,Scattered Clouds,240,2013-01-30 23:50:00
1:00 AM,44,38,73,30.09,11,WSW,22.4,,,,Partly Cloudy,240,2013-01-31 00:00:00
1:20 AM,44.6,39.2,81,30.06,6.2,WSW,18.4,-,N/A,,Scattered Clouds,240,2013-01-31 00:20:00
1:50 AM,42.8,37.4,81,30.06,6.2,WSW,20.7,-,N/A,,Scattered Clouds,240,2013-01-31 00:50:00
2:20 AM,42.8,39.2,87,30.09,6.2,WSW,18.4,-,N/A,,Scattered Clouds,240,2013-01-31 01:20:00
2:50 AM,42.8,37.4,81,30.09,6.2,WSW,17.3,-,N/A,,Scattered Clouds,240,2013-01-31 01:50:00
3:20 AM,42.8,39.2,87,30.09,6.2,WSW,18.4,-,N/A,,Scattered Clouds,240,2013-01-31 02:20:00
3:50 AM,42.8,39.2,87,30.09,6.2,WSW,18.4,-,N/A,,Mostly Cloudy,240,2013-01-31 02:50:00
4:00 AM,43,39,79,30.12,7,WSW,17.9,,,,Partly Cloudy,240,2013-01-31 03:00:00
4:20 AM,42.8,39.2,87,30.09,6.2,WSW,17.3,-,N/A,,Mostly Cloudy,240,2013-01-31 03:20:00
4:50 AM,42.8,37.4,81,30.09,6.2,WSW,16.1,-,N/A,,Mostly Cloudy,240,2013-01-31 03:50:00
5:20 AM,42.8,39.2,87,30.09,6.2,SW,16.1,-,N/A,,Mostly Cloudy,230,2013-01-31 04:20:00
5:50 AM,42.8,37.4,81,30.06,6.2,SW,17.3,-,N/A,,Mostly Cloudy,230,2013-01-31 04:50:00
6:20 AM,42.8,37.4,81,30.04,6.2,SW,18.4,-,N/A,,Scattered Clouds,220,2013-01-31 05:20:00
6:50 AM,42.8,37.4,81,30.04,6.2,SSW,15.0,-,N/A,,Partly Cloudy,210,2013-01-31 05:50:00
7:00 AM,43,38,75,30.06,7,SSW,15.7,,,,Scattered Clouds,210,2013-01-31 06:00:00
7:20 AM,42.8,37.4,81,30.04,6.2,SW,19.6,-,N/A,,Mostly Cloudy,220,2013-01-31 06:20:00
7:50 AM,42.8,37.4,81,30.04,6.2,SW,18.4,-,N/A,,Mostly Cloudy,220,2013-01-31 06:50:00
8:20 AM,42.8,37.4,81,30.04,6.2,SSW,20.7,33.4,N/A,,Mostly Cloudy,210,2013-01-31 07:20:00
8:50 AM,42.8,37.4,81,30.01,6.2,SSW,21.9,-,N/A,,Mostly Cloudy,210,2013-01-31 07:50:00
9:20 AM,42.8,37.4,81,29.98,6.2,SSW,21.9,-,N/A,,Mostly Cloudy,210,2013-01-31 08:20:00
9:50 AM,42.8,35.6,76,29.98,6.2,SSW,23.0,-,N/A,,Mostly Cloudy,200,2013-01-31 08:50:00
10:00 AM,43,35,65,30.01,7,SSW,22.4,,,,Mostly Cloudy,200,2013-01-31 09:00:00
10:20 AM,42.8,35.6,76,29.95,6.2,SSW,25.3,-,N/A,,Scattered Clouds,210,2013-01-31 09:20:00
10:50 AM,42.8,35.6,76,29.92,6.2,SSW,25.3,-,N/A,,Scattered Clouds,210,2013-01-31 09:50:00
11:20 AM,42.8,35.6,76,29.92,6.2,SSW,25.3,-,N/A,,Scattered Clouds,210,2013-01-31 10:20:00
11:50 AM,44.6,37.4,76,29.92,6.2,SSW,27.6,39.1,N/A,,Scattered Clouds,210,2013-01-31 10:50:00
12:20 PM,44.6,37.4,76,29.92,6.2,SW,31.1,47.2,N/A,Rain,Light Rain,220,2013-01-31 11:20:00
12:50 PM,42.8,39.2,87,29.92,5.0,SW,27.6,39.1,N/A,Rain,Light Rain,230,2013-01-31 11:50:00
1:00 PM,43,39,82,29.94,5,SW,26.8,,,Rain,Light Rain,230,2013-01-31 12:00:00
1:20 PM,42.8,39.2,87,29.92,5.6,SW,29.9,41.4,N/A,Rain,Light Rain,230,2013-01-31 12:20:00
1:50 PM,44.6,41.0,87,29.89,6.2,SW,27.6,-,N/A,,Mostly Cloudy,230,2013-01-31 12:50:00
2:20 PM,44.6,41.0,87,29.89,6.2,SW,23.0,-,N/A,,Scattered Clouds,230,2013-01-31 13:20:00
2:50 PM,46.4,41.0,81,29.89,6.2,WSW,21.9,33.4,N/A,,Mostly Cloudy,240,2013-01-31 13:50:00
3:20 PM,46.4,42.8,87,29.86,6.2,WSW,24.2,-,N/A,,Scattered Clouds,240,2013-01-31 14:20:00
3:50 PM,46.4,41.0,81,29.86,6.2,WSW,27.6,39.1,N/A,,Scattered Clouds,240,2013-01-31 14:50:00
4:00 PM,47,41,71,29.89,19,WSW,26.8,,,,Partly Cloudy,240,2013-01-31 15:00:00
4:20 PM,48.2,41.0,76,29.86,6.2,WSW,24.2,39.1,N/A,,Scattered Clouds,250,2013-01-31 15:20:00
4:50 PM,46.4,41.0,81,29.89,6.2,WSW,23.0,-,N/A,,Scattered Clouds,250,2013-01-31 15:50:00
5:20 PM,46.4,39.2,76,29.89,6.2,WSW,19.6,32.2,N/A,,Scattered Clouds,250,2013-01-31 16:20:00
5:50 PM,44.6,37.4,76,29.89,6.2,WSW,19.6,-,N/A,,Scattered Clouds,250,2013-01-31 16:50:00
6:20 PM,44.6,37.4,76,29.92,6.2,WSW,20.7,-,N/A,,Scattered Clouds,250,2013-01-31 17:20:00
6:50 PM,44.6,39.2,81,29.92,6.2,WSW,21.9,-,N/A,,Partly Cloudy,250,2013-01-31 17:50:00
7:00 PM,45,39,72,29.94,7,WSW,22.4,,,,Partly Cloudy,250,2013-01-31 18:00:00
7:20 PM,44.6,39.2,81,29.92,6.2,WSW,23.0,-,N/A,,Scattered Clouds,250,2013-01-31 18:20:00
7:50 PM,44.6,37.4,76,29.95,6.2,WSW,20.7,-,N/A,,Scattered Clouds,250,2013-01-31 18:50:00
8:20 PM,44.6,39.2,81,29.95,6.2,WSW,19.6,-,N/A,,Scattered Clouds,250,2013-01-31 19:20:00
8:50 PM,44.6,39.2,81,29.95,-9999.0,WSW,20.7,32.2,N/A,,Clear,240,2013-01-31 19:50:00
9:20 PM,44.6,39.2,81,29.95,-9999.0,WSW,23.0,-,N/A,,Clear,240,2013-01-31 20:20:00
9:50 PM,44.6,39.2,81,29.95,6.2,WSW,18.4,-,N/A,,Partly Cloudy,240,2013-01-31 20:50:00
10:00 PM,44,39,77,29.98,7,WSW,17.9,,,,Scattered Clouds,240,2013-01-31 21:00:00
10:20 PM,44.6,39.2,81,29.95,6.2,WSW,18.4,-,N/A,,Partly Cloudy,240,2013-01-31 21:20:00
10:50 PM,44.6,39.2,81,29.95,6.2,WSW,18.4,-,N/A,,Scattered Clouds,240,2013-01-31 21:50:00
11:20 PM,44.6,39.2,81,29.95,6.2,WSW,19.6,-,N/A,,Scattered Clouds,250,2013-01-31 22:20:00
11:50 PM,44.6,39.2,81,29.95,6.2,WSW,19.6,-,N/A,,Scattered Clouds,240,2013-01-31 22:50:00